Location: Brno
(49.2000°N, 16.6330°E)
Time: 13:41:50
(UTC+02:00)

A-11 Canister half - All Passes

Search period start: 04 August 2021 00:00
Search period end: 14 August 2021 00:00
Orbit: 1513 x 1687 km, 47.2° (Epoch: 04 August)

Date Brightness Start Highest point End Pass type
(mag) Time Alt. Az. Time Alt. Az. Time Alt. Az.
04 Aug - 00:22:44 10° W 00:30:36 27° SW 00:38:29 10° S visible
04 Aug - 15:42:57 10° S 15:50:48 30° SE 15:58:54 10° E daylight
04 Aug - 17:44:55 10° SW 17:54:29 64° SSE 18:04:24 10° E daylight
04 Aug - 19:49:20 10° W 19:59:16 81° S 20:09:28 10° E daylight
04 Aug - 21:54:13 10° WNW 22:04:03 62° SSW 22:14:01 10° SE visible
04 Aug - 23:59:41 10° W 00:07:46 28° SW 00:15:51 10° S visible
05 Aug - 15:20:20 10° S 15:27:59 28° SE 15:35:50 10° E daylight
05 Aug - 17:22:04 10° SW 17:31:34 62° SSE 17:41:25 10° ENE daylight
05 Aug - 19:26:24 10° W 19:36:19 81° S 19:46:30 10° E daylight
05 Aug - 21:31:17 10° W 21:41:08 64° SSW 21:51:08 10° SE visible
05 Aug - 23:36:38 10° W 23:44:55 30° SW 23:53:12 10° S visible
06 Aug - 14:57:45 10° S 15:05:10 26° SE 15:12:46 10° E daylight
06 Aug - 16:59:13 10° SW 17:08:40 60° SSE 17:18:27 10° ENE daylight
06 Aug - 19:03:30 10° W 19:13:22 81° S 19:23:32 10° E daylight
06 Aug - 21:08:21 10° W 21:18:12 65° SSW 21:28:13 10° SE visible
06 Aug - 23:13:38 10° W 23:22:04 32° SW 23:30:32 10° SSE visible
07 Aug - 14:35:11 10° S 14:42:21 24° SE 14:49:41 10° E daylight
07 Aug - 16:36:24 10° SW 16:45:46 58° SSE 16:55:29 10° ENE daylight
07 Aug - 18:40:35 10° W 18:50:25 81° S 19:00:34 10° E daylight
07 Aug - 20:45:25 10° W 20:55:16 67° SSW 21:05:19 10° ESE visible
07 Aug - 22:50:37 10° WNW 22:59:11 33° SW 23:07:51 10° SSE visible
08 Aug - 14:12:39 10° S 14:19:33 23° SE 14:26:36 10° E daylight
08 Aug - 16:13:35 10° SW 16:22:52 56° SSE 16:32:31 10° ENE daylight
08 Aug - 18:17:40 10° W 18:27:28 80° S 18:37:36 10° E daylight
08 Aug - 20:22:29 10° W 20:32:20 69° SSW 20:42:24 10° ESE daylight
08 Aug - 22:27:38 10° WNW 22:36:20 35° SW 22:45:07 10° SSE visible
09 Aug - 13:50:10 10° S 13:56:44 21° SE 14:03:28 10° E daylight
09 Aug - 15:50:46 10° SW 15:59:59 54° SSE 16:09:33 10° ENE daylight
09 Aug - 17:54:45 10° WSW 18:04:31 80° S 18:14:38 10° E daylight
09 Aug - 19:59:34 10° W 20:09:24 70° SSW 20:19:29 10° ESE daylight
09 Aug - 22:04:39 10° WNW 22:13:28 37° SW 22:22:23 10° SSE visible
10 Aug - 13:27:43 10° S 13:33:57 20° SE 13:40:18 10° E daylight
10 Aug - 15:27:58 10° SW 15:37:06 52° SSE 15:46:34 10° ENE daylight
10 Aug - 17:31:51 10° WSW 17:41:35 79° S 17:51:40 10° E daylight
10 Aug - 19:36:38 10° W 19:46:28 71° SSW 19:56:33 10° ESE daylight
10 Aug - 21:41:41 10° WNW 21:50:36 38° SW 21:59:39 10° SSE visible
10 Aug - 23:50:54 10° WSW 23:53:19 11° WSW 23:55:45 10° SW visible
11 Aug - 13:05:17 10° SSE 13:11:09 18° SE 13:17:08 10° E daylight
11 Aug - 15:05:11 10° SW 15:14:13 50° SSE 15:23:36 10° ENE daylight
11 Aug - 17:08:57 10° WSW 17:18:38 79° S 17:28:41 10° E daylight
11 Aug - 19:13:44 10° W 19:23:32 73° SSW 19:33:37 10° ESE daylight
11 Aug - 21:18:42 10° WNW 21:27:43 40° SW 21:36:53 10° SSE visible
11 Aug - 23:27:03 10° WSW 23:30:32 12° WSW 23:34:03 10° SW visible
12 Aug - 12:42:55 10° SSE 12:48:22 17° SE 12:53:54 10° E daylight
12 Aug - 14:42:25 10° SW 14:51:21 48° SSE 15:00:37 10° ENE daylight
12 Aug - 16:46:04 10° WSW 16:55:42 78° S 17:05:43 10° E daylight
12 Aug - 18:50:49 10° W 19:00:35 74° SSW 19:10:41 10° ESE daylight
12 Aug - 20:55:45 10° WNW 21:04:51 42° SW 21:14:06 10° SSE visible
12 Aug - 23:03:30 10° W 23:07:45 13° WSW 23:12:01 10° SSW visible
13 Aug - 12:20:37 10° SSE 12:25:35 16° SE 12:30:37 10° E daylight
13 Aug - 14:19:39 10° SW 14:28:29 46° SE 14:37:39 10° ENE daylight
13 Aug - 16:23:10 10° WSW 16:32:46 77° S 16:42:46 10° E daylight
13 Aug - 18:27:53 10° W 18:37:40 75° SSW 18:47:44 10° ESE daylight
13 Aug - 20:32:48 10° WNW 20:41:58 44° SW 20:51:19 10° SSE visible
13 Aug - 22:40:05 10° W 22:44:56 15° SW 22:49:51 10° SSW visible
